Regional Weather Roundup
Issued by NWS

Home | Current Version | Previous Version | Graphics & Text | Print | Product List | Glossary On
Versions: 1 2 3 4 5 6 7 8 9 10 11 12 13 14 15 16 17 18 19 20 21 22 23 24 25 26 27 28 29 30 31 32 33 34 35 36 37 38 39 40 41 42 43 44 45 46 47 48 49 50
288
ASUS44 KLIX 311501
RWRLA
LOUISIANA WEATHER ROUNDUP
NATIONAL WEATHER SERVICE NEW ORLEANS LA
1000 AM CDT THU JUL 31 2014

NOTE: "FAIR" INDICATES FEW OR NO CLOUDS BELOW 12,000 FEET WITH NO
      SIGNIFICANT WEATHER AND/OR OBSTRUCTIONS TO VISIBILITY.
      SKY/WX - SKY CONDITION AND SIGNIFICANT WEATHER.
      TMP - AIR TEMPERATURE.    DP   - DEWPOINT TEMPERATURE.
      RH  - RELATIVE HUMIDITY.  PRES - PRESSURE.
      HX  - HEAT INDEX.         WCI  - WIND CHILL INDEX.

*  THESE STATIONS ARE NOT NWS OR FAA STATIONS AND ARE NOT UNDER
   NWS QUALITY CONTROL.

LAZ040-048-061>063-065-066-069-311600-
SOUTHEAST LOUISIANA

CITY           SKY/WX    TMP DP  RH WIND       PRES   REMARKS
N.O. AUDUBON     N/A     87  66  48 MISG        N/A
N.O. INTL ARPT PTSUNNY   86  67  52 NE8       30.04S
N.O. LAKEFRONT PTSUNNY   81  65  58 E9        30.05S
N.O. DOWNTOWN* PTSUNNY   81  63  54 NE5       30.05S
SLIDELL        PTSUNNY   80  65  59 NE6       30.05S
BATON ROUGE    PTSUNNY   76  65  68 NE8       30.06R
BOOTHVILLE     MOSUNNY   83  66  56 VRB5      30.05S
BELLE CHASSE   PTSUNNY   84  67  56 N5        30.04S
BOGALUSA*      PTSUNNY   77  65  65 NE3       30.08S
GALLIANO*      NOT AVBL
NEW ROADS*     FAIR      80  64  58 E7        30.05S
GONZALES*      FAIR      80  71  74 NE3       30.04S
HAMMOND*       PTSUNNY   79  63  57 NE3       30.07S
HOUMA*         MOSUNNY   84  64  51 E3        30.04S
PORT FOURCHON* PTSUNNY   82  63  51 E7        30.05R

$$

LAZ041-044-053-054-311600-
SOUTHWEST LOUISIANA

CITY           SKY/WX    TMP DP  RH WIND       PRES   REMARKS
LAKE CHARLES   PTSUNNY   82  71  69 E6        30.02S
LAFAYETTE      PTSUNNY   78  69  73 E5        30.04S
PATTERSON      CLOUDY    81  70  69 E7        30.07S
SALT POINT       N/A     85  73  67 SE6       30.02S
NEW IBERIA     PTSUNNY   79  69  71 NE6       30.05R
CHENAULT AIRPK PTSUNNY   77  68  73 NE6       30.03S

$$

LAZ027-028-311600-
CENTRAL LOUISIANA

CITY           SKY/WX    TMP DP  RH WIND       PRES   REMARKS
FORT POLK      PTSUNNY   79  64  60 E10       30.03F
ALEXANDRIA INT PTSUNNY   77  64  64 E7        30.03F
ALEXANDRIA     CLOUDY    77  67  71 E5        30.05S

$$

LAZ001-002-311600-
NORTHWEST LOUISIANA

CITY           SKY/WX    TMP DP  RH WIND       PRES   REMARKS
SHREVEPORT     LGT RAIN  70  68  93 CALM      30.05S
BARKSDALE AFB  NOT AVBL
DTN SHREVEPORT LGT RAIN  69  66  90 SE3       30.05S

$$

LAZ014-016-311600-
NORTHEAST LOUISIANA

CITY           SKY/WX    TMP DP  RH WIND       PRES   REMARKS
MONROE         CLOUDY    73  65  75 E6        30.07S
TALLULAH       LGT RAIN  74  67  78 E9        30.07F

$$




USA.gov is the U.S. government's official web portal to all federal, state and local government web resources and services.